EHI
2 2 1 0 0 0 0 0 0 0 0 0 0 0 0 0 0 0 0 0 0 0 0 0 0 1 2 1 1 2 2 2 3 3 3 3 2 4 4 4 3 1 0 0 0 0 0 0 0
3 3 1 0 0 0 0 0 0 0 0 0 0 0 0 0 0 0 0 0 0 0 0 0 0 1 1 1 2 3 3 3 3 3 3 3 3 4 5 4 3 1 0 0 0 0 0 0 0
4 3 1 0 0 0 0 0 0 0 0 0 0 0 0 0 0 0 0 0 0 0 0 0 1 2 1 1 2 3 3 3 2 2 3 3 2 2 3 3 2 1 0 0 1 1 1 1 1
2 1 0 0 0 0 0 0 0 0 0 0 0 0 0 0 0 0 0 0 0 0 0 1 2 2 1 1 3 4 3 2 1 1 2 2 1 0 1 1 1 0 0 0 1 3 3 2 1
1 0 0 0 0 0 0 0 0 0 0 0 0 0 0 0 0 0 0 0 0 0 0 1 3 2 0 1 2 4 4 2 0 0 1 1 0 0 0 0 0 0 0 0 1 3 3 2 2
0 0 0 0 0 0 0 0 0 0 0 0 0 0 0 0 0 0 0 0 0 0 0 1 2 1 0 0 2 3 3 1 0 0 0 0 0 0 0 0 0 0 0 0 0 1 1 1 1
0 0 0 0 0 0 0 0 0 0 0 0 0 0 0 0 0 0 0 0 0 0 0 0 0 0 0 0 1 1 1 0 0 0 0 0 0 0 0 0 0 0 0 0 0 0 0 0 0
0 0 0 0 0 0 0 0 0 0 0 0 0 0 0 0 0 0 0 0 0 0 0 0 0 0 0 0 0 0 0 0 0 0 1 0 0 0 0 0 0 0 0 0 0 0 0 0 0
0 0 0 0 0 0 0 0 0 0 0 0 0 0 0 0 0 0 0 0 0 0 0 0 0 0 0 0 0 0 0 0 0 0 0 0 0 0 0 0 0 0 0 0 0 0 0 0 0
0 0 0 0 0 0 0 0 0 0 0 0 0 0 0 0 0 0 0 0 0 0 0 0 0 0 0 0 0 0 0 0 0 0 0 0 0 0 0 0 0 0 0 0 0 0 0 0 0
0 0 0 0 0 0 0 0 0 0 0 0 0 0 0 0 0 0 0 0 0 0 0 0 0 0 0 0 0 0 0 0 0 0 0 0 0 0 0 0 0 0 0 0 0 0 0 0 0
0 0 0 0 0 0 0 0 0 0 0 0 0 0 0 0 0 0 0 0 0 0 0 0 0 0 0 1 0 0 0 0 0 0 0 0 0 0 0 0 0 0 0 0 0 0 0 0 0
0 0 0 0 0 0 0 0 0 0 0 0 0 0 0 0 0 0 0 0 0 0 0 0 0 0 0 0 0 0 0 0 0 0 0 0 0 0 0 0 0 0 0 0 0 0 0 0 0
0 0 0 0 0 0 0 0 0 0 0 0 0 0 0 0 0 0 0 0 0 0 0 0 0 0 0 0 0 0 0 0 0 0 0 0 0 0 0 0 0 0 0 0 0 0 0 0 0
0 0 0 0 0 0 0 0 0 0 0 0 0 0 0 0 0 0 0 0 0 0 0 0 0 0 0 0 0 0 0 0 0 0 0 0 0 0 0 0 0 0 0 0 0 0 0 0 0
0 0 0 0 0 0 0 0 0 0 0 0 0 0 0 0 0 0 0 0 0 0 0 0 0 0 0 0 0 0 0 0 0 0 0 0 0 0 0 0 0 0 0 0 0 0 0 0 0
0 0 0 0 0 0 0 0 0 0 0 0 0 0 0 0 0 0 0 0 0 0 0 0 0 0 0 0 0 0 0 0 0 0 0 0 0 0 0 0 0 0 0 0 0 0 0 0 0
0 0 0 0 0 0 0 0 0 0 0 0 0 0 0 0 0 0 0 0 0 0 0 0 0 0 0 0 0 0 0 0 0 0 0 0 0 0 0 0 0 0 0 0 0 0 0 0 0
0 0 0 0 0 0 0 0 0 0 0 0 0 0 0 0 0 0 0 0 0 0 0 0 0 0 0 0 0 0 0 0 0 0 0 0 0 0 0 0 0 0 0 0 0 0 0 0 0
0 0 0 0 0 0 0 0 0 0 0 0 0 0 0 0 0 0 0 0 0 0 0 0 0 0 0 0 0 0 0 0 0 0 0 0 0 0 0 0 0 0 0 0 0 0 0 0 0
0 0 0 0 0 0 0 0 0 0 0 0 0 0 0 0 0 0 0 0 0 0 0 0 0 0 0 0 0 0 0 0 0 0 0 0 0 0 0 0 0 0 0 0 0 0 0 0 0
0 0 0 0 0 0 0 0 0 0 0 0 0 0 0 0 0 1 0 0 0 0 0 0 0 0 0 0 0 0 0 0 0 0 0 0 0 0 0 0 0 0 0 0 0 0 0 0 0
0 0 0 0 0 0 0 0 0 0 0 0 0 0 0 0 0 1 1 0 0 0 0 0 0 0 0 0 0 0 0 0 0 0 0 0 0 0 0 0 0 0 0 0 0 0 0 0 0
0 0 0 0 0 0 0 0 0 0 0 0 0 0 0 0 1 1 1 1 0 0 0 0 0 0 0 0 0 0 0 0 0 0 0 0 0 0 0 0 0 0 0 0 0 0 0 0 0
0 0 0 0 0 0 0 0 0 0 0 0 0 0 0 0 1 2 2 1 0 0 0 0 0 0 0 0 0 0 0 0 0 0 0 0 0 0 0 0 0 0 0 0 0 0 0 0 0
0 0 0 0 0 0 0 0 0 0 0 0 0 0 0 0 1 1 1 0 0 0 0 0 0 0 0 0 0 0 0 0 0 0 0 0 0 0 0 0 0 0 0 0 0 0 0 0 0
0 0 0 0 0 0 0 0 0 0 0 0 0 0 0 0 0 0 0 0 1 0 0 0 0 0 0 0 0 0 0 0 0 0 0 0 0 0 0 0 0 0 0 0 0 0 0 0 0
0 0 0 0 0 0 0 0 0 0 0 0 0 0 0 0 0 0 0 0 0 0 0 0 0 0 0 0 0 0 0 0 0 0 0 0 0 0 0 0 0 0 0 0 0 0 0 0 0
0 0 0 0 0 0 0 0 0 0 0 0 0 0 0 0 0 0 0 0 0 0 0 0 0 0 0 0 1 1 0 0 0 0 0 0 0 0 0 0 0 0 0 0 0 0 0 0 0
0 0 0 0 0 0 0 0 0 0 0 0 0 0 0 0 0 0 0 0 0 0 0 0 0 0 0 1 2 2 1 0 0 0 0 0 0 0 0 0 0 0 0 0 0 0 0 0 0
Wind_Speed
1 1 2 3 4 2 4 4 4 5 5 5 6 6 7 7 6 7 5 5 6 7 8 10 10 11 11 12 12 12 12 11 11 10 9 9 9 8 8 8 9 8 8 7 7 7 7 7 7
2 1 3 3 3 4 5 5 6 7 6 6 6 6 7 8 7 7 5 6 7 8 8 10 10 11 12 12 12 12 12 11 11 10 9 9 8 8 8 9 9 8 8 8 7 6 6 6 6
1 3 3 2 1 3 6 6 8 8 6 4 5 6 6 6 6 6 6 7 8 9 9 11 10 11 11 11 11 12 11 11 10 10 9 9 8 9 9 9 9 8 7 7 7 6 6 6 6
2 3 2 2 6 6 5 6 7 7 6 5 6 8 7 6 4 7 8 8 10 10 10 12 10 11 11 11 11 11 11 10 10 10 9 9 9 9 9 9 8 8 7 7 7 7 6 6 6
2 3 3 5 6 6 5 4 4 6 5 6 7 9 8 6 8 9 9 9 10 10 10 11 11 11 11 11 10 10 11 10 10 10 10 9 9 9 8 8 8 7 7 7 7 6 6 6 6
2 2 4 6 7 6 5 4 5 8 9 8 8 9 7 7 9 8 9 9 9 10 9 11 12 11 11 10 10 10 10 10 10 10 9 9 9 8 8 8 7 7 6 6 6 6 6 6 6
1 1 4 7 8 7 5 4 5 7 8 7 6 8 8 8 8 8 9 9 9 9 9 8 10 10 10 10 10 9 9 9 9 9 8 8 8 8 7 7 7 7 7 7 7 6 6 6 6
1 2 6 6 7 6 5 5 6 6 7 6 3 7 8 9 8 8 9 9 9 9 8 8 8 7 8 9 10 9 9 9 8 8 7 6 6 6 5 5 7 6 7 7 7 6 6 6 6
3 3 5 5 5 6 5 6 5 5 8 6 5 8 11 11 10 9 8 8 8 7 7 7 7 7 6 7 8 7 8 6 5 7 6 2 4 5 5 9 7 6 7 7 7 6 5 3 5
1 2 5 4 4 6 6 5 5 6 9 9 11 12 12 10 9 9 8 8 8 7 6 6 6 5 6 5 5 4 5 4 4 5 5 4 4 5 4 7 6 6 6 5 5 3 2 2 2
3 5 6 5 5 6 6 5 4 5 7 9 13 14 11 10 9 9 8 7 7 7 6 5 5 5 5 4 4 3 3 3 4 5 5 4 4 3 3 3 4 3 2 3 3 1 2 3 3
6 7 5 6 5 5 5 5 5 4 6 8 12 13 11 10 9 8 8 7 7 7 6 6 5 5 5 5 4 3 3 3 4 4 5 3 3 3 4 3 3 2 2 3 2 2 4 4 4
7 7 7 7 6 6 7 7 7 7 8 10 12 12 11 9 8 7 7 7 7 7 7 7 5 5 5 6 4 4 4 4 5 3 3 4 3 3 3 3 3 3 3 2 2 3 4 4 4
8 9 8 7 6 5 7 7 6 6 8 11 11 10 10 8 8 8 8 7 7 7 7 7 6 5 5 5 4 4 4 3 4 3 4 4 3 3 3 4 3 3 3 3 3 4 3 4 4
8 9 7 5 5 6 7 6 6 7 9 10 10 9 8 8 7 7 7 7 7 7 7 7 5 5 5 5 5 4 3 4 4 3 4 5 4 4 4 3 3 3 3 3 3 4 3 4 4
6 5 5 4 3 4 4 6 7 8 9 9 8 8 8 7 7 6 7 6 6 7 8 7 5 5 5 5 4 4 4 4 4 4 4 5 5 5 4 3 3 3 3 2 2 2 3 4 3
5 4 5 5 3 3 4 6 7 8 8 8 8 9 8 8 8 7 6 6 6 7 7 7 6 5 5 5 5 4 5 4 4 4 4 4 5 5 5 4 3 4 3 3 2 3 3 4 3
5 5 4 4 3 4 4 5 6 8 8 9 9 9 9 8 8 7 7 6 6 6 7 7 6 5 6 4 4 4 4 4 4 4 5 5 4 5 4 3 5 4 3 3 3 4 3 3 2
4 4 4 3 3 3 4 4 5 7 9 10 10 9 9 8 8 7 7 7 7 7 7 6 6 6 4 3 3 3 3 3 4 4 5 5 5 5 5 4 5 4 4 4 4 3 3 3 2
5 5 4 4 3 2 2 3 4 6 9 9 9 9 9 9 9 8 8 8 8 8 7 6 6 5 4 3 3 3 3 3 4 4 5 5 5 5 4 5 4 4 3 4 4 3 2 3 2
5 4 4 4 4 3 3 4 5 6 7 8 8 9 9 10 10 10 9 9 8 8 7 5 5 6 5 4 3 4 4 3 3 3 3 4 5 5 5 5 4 4 4 4 4 3 3 2 3
3 3 4 5 4 3 3 2 4 6 8 9 9 9 10 11 10 10 10 10 9 8 7 6 6 6 6 5 4 4 3 3 3 3 3 4 5 5 5 5 4 4 4 4 4 4 3 2 2
3 4 4 4 3 3 4 4 4 6 8 9 10 11 11 11 11 11 11 10 9 9 7 6 6 6 5 5 5 4 3 3 3 3 4 4 4 5 5 4 4 4 4 5 5 4 4 3 3
6 5 4 3 4 4 3 4 3 5 6 7 9 10 11 11 11 11 10 9 8 8 7 7 7 6 5 5 5 5 5 4 5 4 3 3 3 3 5 4 4 4 4 4 4 4 5 4 5
7 5 4 5 4 2 2 4 3 2 3 5 8 10 10 11 11 11 11 11 10 9 9 8 7 7 6 6 5 5 5 5 4 4 3 2 3 3 3 3 4 4 4 4 4 4 4 5 5
7 6 4 2 1 2 4 4 1 2 3 4 6 8 9 10 11 11 12 11 11 10 9 9 8 7 6 6 5 5 5 3 3 3 3 3 2 3 3 3 4 4 4 4 4 3 4 4 4
6 5 3 3 2 3 3 2 2 3 4 6 7 8 9 10 11 11 11 11 11 10 10 9 8 7 7 6 6 5 5 4 4 4 4 3 3 3 3 3 4 4 4 4 4 3 4 4 4
3 3 4 4 3 3 2 3 2 5 5 6 7 8 9 10 11 12 11 11 11 10 9 9 8 7 7 6 6 4 5 5 4 4 4 4 4 3 4 3 3 4 4 3 3 3 3 4 4
7 6 5 4 4 3 1 2 2 3 4 6 6 7 9 10 11 11 11 11 10 10 10 9 8 8 7 7 7 7 6 5 5 4 4 4 4 4 4 3 3 3 3 3 3 3 3 3 3
6 6 7 5 3 4 3 1 4 2 3 5 6 6 8 9 10 11 11 10 10 10 10 9 9 8 7 7 7 7 6 6 5 5 4 4 4 3 3 3 3 3 3 3 3 3 3 3 3
Wind_Direction
272 197 217 230 220 169 95 86 98 108 87 73 72 73 74 52 38 78 92 93 96 104 107 106 101 102 101 99 96 95 94 96 96 94 92 91 90 88 86 81 77 75 74 73 74 74 73 72 68
305 236 228 236 231 139 101 97 94 84 100 101 81 76 76 70 63 89 100 98 106 105 103 97 99 100 100 97 95 93 91 90 89 89 87 86 85 82 78 75 71 69 68 65 65 70 71 69 64
199 249 255 227 138 89 105 103 101 97 102 99 89 66 60 69 76 88 100 113 108 102 99 96 98 100 98 96 95 94 93 90 88 88 85 84 83 80 76 73 70 66 64 61 60 63 67 66 63
230 215 221 157 102 71 88 111 121 119 96 81 101 88 77 61 65 97 114 115 109 104 100 95 96 99 98 96 93 93 91 88 86 85 85 84 83 80 76 74 72 67 63 61 59 60 64 63 62
242 237 167 126 101 90 84 95 129 118 105 100 101 99 86 74 92 103 113 112 109 105 101 99 89 89 89 89 92 91 89 87 84 82 79 78 78 75 72 70 69 65 61 60 60 60 63 62 61
226 225 168 134 116 107 94 98 116 106 106 106 107 104 92 102 102 107 113 112 109 108 106 105 98 88 84 83 86 88 86 84 81 79 78 77 75 72 68 65 62 59 58 59 58 58 61 62 60
280 170 131 127 128 121 102 103 103 111 109 98 105 106 112 112 106 116 118 116 112 109 106 104 106 106 99 88 80 82 82 81 79 79 78 74 71 70 66 62 57 58 57 57 58 60 63 66 63
332 153 134 133 136 116 106 107 94 98 97 96 104 115 125 124 122 120 118 116 115 112 107 105 103 100 99 99 85 81 81 80 79 79 78 82 96 92 83 79 62 55 58 58 59 62 64 68 65
264 182 139 127 130 117 125 121 99 98 105 91 77 95 115 124 129 127 124 123 118 114 112 108 103 97 95 91 95 100 98 91 110 103 101 128 90 93 98 62 59 59 62 62 61 63 66 80 103
290 124 96 83 99 120 122 110 120 130 118 111 106 108 121 131 136 134 132 130 126 122 116 109 105 103 98 91 96 88 89 91 75 76 82 73 73 69 68 93 74 68 71 81 68 71 153 233 108
69 92 106 102 101 118 117 105 110 131 122 130 132 132 134 139 140 138 131 124 121 120 113 109 108 101 100 100 88 86 87 85 73 66 79 72 75 89 77 84 104 96 91 73 92 151 73 67 67
100 94 106 109 104 112 111 113 102 82 101 124 130 134 137 144 142 140 132 123 121 115 111 106 104 105 102 97 93 89 84 77 71 62 61 69 64 59 68 66 57 49 55 51 46 52 73 62 68
106 105 101 102 105 109 109 105 99 90 107 124 130 137 141 141 140 137 130 127 124 119 115 107 103 99 101 97 92 86 72 60 74 57 53 66 71 67 70 71 61 51 49 57 57 60 65 62 60
108 110 105 105 109 118 120 114 111 114 131 134 138 143 143 144 145 142 141 136 129 122 118 119 110 98 100 100 94 81 77 75 63 61 57 66 65 62 59 65 54 47 44 39 44 67 68 66 62
129 121 111 104 111 125 131 118 121 135 146 145 148 145 146 150 150 147 141 140 132 128 126 121 110 104 98 94 87 79 73 71 67 63 58 66 59 57 60 58 62 53 50 52 45 63 68 76 82
154 152 133 114 121 149 180 132 131 150 156 156 155 152 156 155 155 147 147 145 140 139 133 125 119 108 103 99 100 90 78 75 74 68 59 60 61 59 55 53 55 53 51 53 61 58 72 80 75
179 154 129 132 139 165 175 141 145 165 170 167 168 163 162 159 160 155 156 152 148 145 137 132 122 116 109 106 108 93 87 78 72 67 59 55 58 59 64 47 40 50 49 49 57 61 62 73 73
159 145 136 132 136 163 156 149 153 169 182 181 174 169 166 165 163 157 156 154 151 147 145 137 131 135 127 128 117 103 90 84 75 69 61 55 58 58 60 60 49 47 52 48 55 65 65 68 75
145 145 132 111 134 167 163 164 169 173 187 188 181 176 171 168 162 157 160 160 156 151 150 145 148 144 143 135 132 121 107 97 84 71 64 62 60 57 59 52 53 43 52 44 49 60 79 68 62
165 152 136 123 139 185 174 189 183 185 196 196 188 181 178 172 166 163 167 169 165 159 157 157 156 152 144 130 126 120 106 95 81 75 68 58 55 52 54 57 63 59 61 55 48 46 46 66 25
177 174 153 143 140 172 203 194 177 181 196 198 200 191 185 183 178 171 171 170 168 167 164 164 162 155 149 145 137 136 129 129 118 99 79 57 55 56 52 54 57 55 57 57 49 46 41 49 49
173 157 160 168 192 176 232 213 180 186 193 198 199 194 189 187 185 179 176 173 173 171 167 169 167 159 157 162 157 150 143 128 107 96 96 89 70 66 57 58 59 59 59 62 54 50 47 35 48
124 139 166 190 215 216 214 245 167 184 199 202 201 196 191 187 186 183 181 176 175 171 170 170 165 160 160 165 154 164 146 127 119 119 113 97 78 67 65 60 61 63 61 59 55 51 42 46 36
134 147 151 192 228 226 198 242 191 183 205 200 194 193 189 185 183 182 177 174 174 169 168 169 166 159 163 169 167 162 144 141 134 132 121 110 94 79 73 66 66 65 62 62 58 62 59 53 51
179 193 195 198 205 192 151 241 226 167 196 199 191 186 183 180 179 178 174 173 174 173 172 171 169 168 171 172 169 160 154 155 146 141 131 119 102 91 80 77 72 69 65 65 64 67 63 61 56
197 233 264 262 201 152 188 238 149 122 174 187 186 179 175 178 179 177 176 176 175 175 177 177 173 171 170 172 167 165 156 160 140 136 126 120 102 91 89 88 79 75 71 72 69 66 63 59 57
197 223 292 294 262 251 209 212 197 160 175 175 177 174 177 178 178 178 176 176 177 177 178 179 176 173 172 171 166 163 157 150 143 141 127 117 110 106 103 97 94 87 77 69 72 67 67 56 50
262 203 214 243 251 237 213 217 193 169 177 180 180 178 177 178 177 176 176 177 177 174 175 176 178 176 175 167 161 157 157 149 145 139 132 126 117 116 115 106 100 98 93 85 75 70 59 65 64
182 199 226 245 273 279 252 115 90 177 182 187 184 181 177 176 174 173 174 176 176 172 173 175 176 174 170 166 162 159 154 150 149 143 135 135 131 132 127 114 108 102 99 95 90 75 68 56 62
228 225 223 239 227 252 279 82 97 188 186 187 185 179 175 171 170 169 170 173 175 176 175 175 174 172 169 168 164 157 152 152 154 145 141 142 138 138 131 121 115 107 103 90 80 75 66 58 54